User: anonymous   Login
Location: Owatonna
(44.0840°N, 93.2260°W)
Time: 06:29:41
(UTC-05:00)
Language:

ALOS - Orbit

View from above orbital plane
View from above orbital plane
View from above satellite
View from above satellite

Ground track
Ground track

The orbit data is extracted from the following two-line orbital elements,

1 28931U 06002A   16238.19370607  .00000108  00000-0  30257-4 0  9994
2 28931  97.8776 273.8308 0001893 122.0860 238.0526 14.62228285564203
Epoch (UTC): 25 August 2016 04:38:56
Eccentricity: 0.0001893
inclination: 97.8776°
perigee height: 684 km
apogee height: 687 km
right ascension of ascending node: 273.8308°
argument of perigee: 122.0860°
revolutions per day: 14.62228285
mean anomaly at epoch: 238.0526°
orbit number at epoch: 56420

The dashed part of the orbit path shows where the satellite is in the earth's shadow,  

DLR